• In Uzbekistan
  • List of Countries
  • For 7 days
  • Water Temperature
  • Satellite Maps
  • Weather Map
  • Weather Widgets
  • user-avatar
    Login

    Hourly Weather Innsbruck

    Today, 7 December, Wednesday

    Time Temperature Precipitation Wind Pressure Humidity
    00:00 -11°C° 0 mm 1 mps 597 mmHg 59%
    01:00 -11°C° 0 mm 1 mps 597 mmHg 54%
    02:00 -11°C° 0 mm 1 mps 597 mmHg 54%
    03:00 -12°C° 0 mm 1 mps 597 mmHg 53%
    04:00 -12°C° 0 mm 1 mps 597 mmHg 53%
    05:00 -11°C° 0 mm 1 mps 597 mmHg 51%
    06:00 -11°C° 0 mm 1 mps 597 mmHg 50%
    07:00 -12°C° 0 mm 1 mps 598 mmHg 53%
    08:00 -9°C° 0 mm 1 mps 599 mmHg 54%
    09:00 -6°C° 0 mm 1 mps 601 mmHg 55%
    10:00 -3°C° 0 mm 1 mps 602 mmHg 55%
    11:00 -1°C° 0 mm 1 mps 603 mmHg 58%
    12:00 -1°C° 0 mm 0 mps 603 mmHg 60%
    13:00 0°C° 0 mm 0 mps 603 mmHg 63%
    14:00 -2°C° 0 mm 0 mps 602 mmHg 64%
    15:00 -5°C° 0 mm 0 mps 601 mmHg 66%
    16:00 -8°C° 0 mm 0 mps 599 mmHg 67%
    17:00 -8°C° 0 mm 0 mps 599 mmHg 68%
    18:00 -9°C° 0 mm 0 mps 598 mmHg 69%
    19:00 -10°C° 0 mm 1 mps 598 mmHg 70%
    20:00 -10°C° 0 mm 1 mps 598 mmHg 67%
    21:00 -10°C° 0 mm 1 mps 599 mmHg 63%
    22:00 -9°C° 0 mm 1 mps 599 mmHg 60%
    23:00 -9°C° 0 mm 1 mps 599 mmHg 58%

    Tomorrow, 8 December, Thursday

    Time Temperature Precipitation Wind Pressure Humidity
    00:00 -9°C° 0 mm 1 mps 599 mmHg 56%
    01:00 -9°C° 0 mm 1 mps 599 mmHg 55%
    02:00 -9°C° 0 mm 1 mps 599 mmHg 54%
    03:00 -8°C° 0 mm 1 mps 599 mmHg 54%
    04:00 -8°C° 0 mm 1 mps 599 mmHg 54%
    05:00 -8°C° 0 mm 1 mps 599 mmHg 53%
    06:00 -8°C° 0 mm 1 mps 599 mmHg 53%
    07:00 -8°C° 0 mm 1 mps 599 mmHg 53%
    08:00 -4°C° 0 mm 1 mps 601 mmHg 54%
    09:00 -2°C° 0 mm 1 mps 602 mmHg 54%
    10:00 0°C° 0 mm 1 mps 603 mmHg 55%
    11:00 +1°C° 0 mm 1 mps 604 mmHg 57%
    12:00 +2°C° 0 mm 1 mps 604 mmHg 60%
    13:00 +3°C° 0 mm 1 mps 604 mmHg 62%
    14:00 +1°C° 0 mm 1 mps 603 mmHg 60%
    15:00 -1°C° 0 mm 1 mps 601 mmHg 58%
    16:00 -4°C° 0 mm 1 mps 600 mmHg 56%
    17:00 -6°C° 0 mm 1 mps 600 mmHg 55%
    18:00 -6°C° 0 mm 1 mps 599 mmHg 55%
    19:00 -7°C° 0 mm 1 mps 599 mmHg 55%
    20:00 -7°C° 0 mm 1 mps 599 mmHg 55%
    21:00 -7°C° 0 mm 1 mps 600 mmHg 54%
    22:00 -6°C° 0 mm 1 mps 600 mmHg 54%
    23:00 -6°C° 0 mm 1 mps 600 mmHg 53%

    Day after tomorrow, 9 December, Friday

    Time Temperature Precipitation Wind Pressure Humidity
    00:00 -7°C° 0 mm 2 mps 600 mmHg 52%
    01:00 -7°C° 0 mm 2 mps 600 mmHg 51%
    02:00 -7°C° 0 mm 2 mps 600 mmHg 51%
    03:00 -7°C° 0 mm 2 mps 600 mmHg 51%
    04:00 -7°C° 0 mm 2 mps 600 mmHg 50%
    05:00 -7°C° 0 mm 2 mps 600 mmHg 49%
    06:00 -8°C° 0 mm 2 mps 600 mmHg 48%
    07:00 -8°C° 0 mm 2 mps 600 mmHg 46%
    08:00 -4°C° 0 mm 1 mps 601 mmHg 48%
    09:00 -2°C° 0 mm 1 mps 602 mmHg 50%
    10:00 0°C° 0 mm 1 mps 603 mmHg 51%
    11:00 +1°C° 0 mm 1 mps 603 mmHg 54%
    12:00 +2°C° 0 mm 1 mps 603 mmHg 57%
    13:00 +3°C° 0 mm 1 mps 603 mmHg 59%
    14:00 +1°C° 0 mm 1 mps 602 mmHg 55%
    15:00 -1°C° 0 mm 1 mps 600 mmHg 52%
    16:00 -3°C° 0 mm 1 mps 599 mmHg 48%
    17:00 -4°C° 0 mm 1 mps 599 mmHg 47%
    18:00 -4°C° 0 mm 1 mps 599 mmHg 47%
    19:00 -6°C° 0 mm 1 mps 598 mmHg 46%
    20:00 -6°C° 0 mm 1 mps 598 mmHg 45%
    21:00 -6°C° 0 mm 1 mps 598 mmHg 43%
    22:00 -6°C° 0 mm 1 mps 598 mmHg 42%
    23:00 -6°C° 0 mm 1 mps 598 mmHg 44%

    10 December, Saturday

    Time Temperature Precipitation Wind Pressure Humidity
    00:00 -6°C° 0 mm 1 mps 597 mmHg 46%
    01:00 -6°C° 0 mm 1 mps 597 mmHg 47%
    02:00 -6°C° 0 mm 1 mps 597 mmHg 48%
    03:00 -6°C° 0 mm 1 mps 597 mmHg 49%
    04:00 -6°C° 0 mm 1 mps 596 mmHg 51%
    05:00 -6°C° 0 mm 1 mps 596 mmHg 52%
    06:00 -6°C° 0 mm 1 mps 596 mmHg 53%
    07:00 -6°C° 0 mm 1 mps 596 mmHg 54%
    08:00 -3°C° 0 mm 1 mps 597 mmHg 54%
    09:00 -1°C° 0 mm 1 mps 598 mmHg 55%
    10:00 +1°C° 0 mm 1 mps 600 mmHg 55%
    11:00 +2°C° 0 mm 1 mps 600 mmHg 58%
    12:00 +3°C° 0 mm 1 mps 600 mmHg 60%
    13:00 +3°C° 0 mm 0 mps 600 mmHg 63%
    14:00 +1°C° 0 mm 0 mps 599 mmHg 62%
    15:00 -1°C° 0 mm 1 mps 598 mmHg 61%
    16:00 -3°C° 0 mm 1 mps 596 mmHg 60%
    17:00 -4°C° 0 mm 1 mps 596 mmHg 59%
    18:00 -4°C° 0 mm 1 mps 596 mmHg 59%
    19:00 -6°C° 0 mm 1 mps 596 mmHg 59%
    20:00 -6°C° 0 mm 1 mps 595 mmHg 56%
    21:00 -6°C° 0 mm 1 mps 595 mmHg 53%
    22:00 -6°C° 0 mm 1 mps 595 mmHg 51%
    23:00 -6°C° 0 mm 1 mps 595 mmHg 50%

    11 December, Sunday

    Time Temperature Precipitation Wind Pressure Humidity
    00:00 -7°C° 0 mm 1 mps 594 mmHg 49%
    01:00 -7°C° 0 mm 1 mps 594 mmHg 48%
    02:00 -7°C° 0 mm 1 mps 594 mmHg 47%
    03:00 -7°C° 0 mm 1 mps 594 mmHg 45%
    04:00 -7°C° 0 mm 1 mps 593 mmHg 44%
    05:00 -7°C° 0 mm 1 mps 593 mmHg 44%
    06:00 -7°C° 0 mm 1 mps 593 mmHg 45%
    07:00 -6°C° 0 mm 1 mps 593 mmHg 45%
    08:00 -4°C° 0 mm 1 mps 594 mmHg 48%
    09:00 -2°C° 0 mm 1 mps 595 mmHg 51%
    10:00 -1°C° 0 mm 1 mps 596 mmHg 55%
    11:00 0°C° 0 mm 1 mps 597 mmHg 58%
    12:00 +1°C° 0 mm 1 mps 597 mmHg 61%
    13:00 +2°C° 0 mm 1 mps 597 mmHg 64%
    14:00 0°C° 0 mm 1 mps 596 mmHg 66%
    15:00 -1°C° 0 mm 1 mps 595 mmHg 68%
    16:00 -3°C° 0 mm 1 mps 594 mmHg 70%
    17:00 -3°C° 0 mm 1 mps 594 mmHg 70%
    18:00 -3°C° 0 mm 1 mps 595 mmHg 70%
    19:00 -3°C° 0 mm 1 mps 595 mmHg 70%
    20:00 -3°C° 0 mm 1 mps 595 mmHg 71%
    21:00 -3°C° 0 mm 1 mps 595 mmHg 73%
    22:00 -4°C° 0 mm 1 mps 595 mmHg 75%
    23:00 -4°C° 0 mm 1 mps 595 mmHg 76%

    12 December, Monday

    Time Temperature Precipitation Wind Pressure Humidity
    00:00 -4°C° 0 mm 1 mps 595 mmHg 78%
    01:00 -4°C° 0 mm 1 mps 594 mmHg 80%
    02:00 -4°C° 0 mm 1 mps 594 mmHg 83%
    03:00 -6°C° 0 mm 1 mps 594 mmHg 86%
    04:00 -6°C° 0 mm 1 mps 593 mmHg 89%
    05:00 -6°C° 0 mm 1 mps 594 mmHg 90%
    06:00 -6°C° 0 mm 1 mps 594 mmHg 91%
    07:00 -6°C° 0 mm 1 mps 594 mmHg 92%
    08:00 -4°C° 0 mm 1 mps 595 mmHg 91%
    09:00 -3°C° 0 mm 1 mps 595 mmHg 90%
    10:00 -2°C° 0 mm 1 mps 596 mmHg 90%
    11:00 -1°C° 0 mm 1 mps 596 mmHg 89%
    12:00 -1°C° 0 mm 1 mps 596 mmHg 89%
    13:00 0°C° 0 mm 1 mps 596 mmHg 89%
    14:00 -1°C° 0 mm 1 mps 596 mmHg 91%
    15:00 -2°C° 0 mm 1 mps 596 mmHg 93%
    16:00 -3°C° 0 mm 1 mps 595 mmHg 95%
    17:00 -4°C° 0 mm 1 mps 595 mmHg 95%
    18:00 -4°C° 0 mm 1 mps 595 mmHg 96%
    19:00 -6°C° 0 mm 1 mps 595 mmHg 96%
    20:00 -7°C° 0 mm 1 mps 595 mmHg 96%
    21:00 -7°C° 0 mm 1 mps 595 mmHg 96%
    22:00 -8°C° 0 mm 1 mps 594 mmHg 96%
    23:00 -9°C° 0 mm 1 mps 594 mmHg 95%
    Show more